KD9ZDW Weather Reports


time (UTC)temp
C
wind
direction
speed
KPH
gust
KPH
rain 1hr
cm
rain 24hr
cm
rain mn
cm
humidity
%
barometer
mb
20260507001550 12 274 1.6 3.2 0.00 0.05 0.05 50 1015.2
20260507001048 12 263 8.0 11.3 0.00 0.05 0.05 48 1015.1
20260507000544 12 263 3.2 9.7 0.00 0.05 0.05 46 1015.1
20260507000039 12 278 4.8 4.8 0.00 0.05 0.05 49 1015.3
20260506235537 12 298 4.8 4.8 0.00 0.05 0.05 45 1015.0
20260506235032 12 301 1.6 4.8 0.00 0.05 0.05 45 1015.2
20260506234530 12 262 4.8 9.7 0.00 0.05 0.05 46 1015.2
20260506234027 12 246 4.8 8.0 0.00 0.05 0.05 45 1015.2
20260506233524 12 276 4.8 8.0 0.00 0.05 0.05 46 1015.1
20260506233021 12 281 1.6 8.0 0.00 0.05 0.05 47 1015.1
20260506232517 12 294 1.6 3.2 0.00 0.05 0.05 46 1015.2
20260506232013 12 313 3.2 4.8 0.00 0.05 0.05 44 1015.2
20260506231510 12 269 6.4 12.9 0.00 0.05 0.05 44 1015.1
20260506231008 12 272 1.6 4.8 0.00 0.05 0.05 47 1015.2
20260506230504 12 273 3.2 8.0 0.00 0.05 0.05 47 1015.2
20260506230001 12 267 1.6 4.8 0.00 0.05 0.05 46 1015.3
20260506225458 12 232 1.6 4.8 0.00 0.05 0.05 45 1015.2
20260506224954 12 300 3.2 8.0 0.00 0.05 0.05 44 1015.3
20260506224452 12 236 4.8 8.0 0.00 0.05 0.05 43 1015.2
20260506223948 12 277 3.2 3.2 0.00 0.05 0.05 45 1015.3
20260506223444 12 294 4.8 9.7 0.00 0.05 0.05 47 1015.1
20260506222941 13 311 4.8 9.7 0.00 0.05 0.05 44 1015.4
20260506222438 13 287 1.6 4.8 0.00 0.05 0.05 45 1015.4
20260506221935 12 264 4.8 12.9 0.00 0.05 0.05 44 1015.1
20260506221432 13 275 8.0 14.5 0.00 0.05 0.05 41 1015.1
20260506220930 13 274 4.8 8.0 0.00 0.05 0.05 42 1015.1
20260506220425 13 270 6.4 9.7 0.00 0.05 0.05 42 1015.1
20260506215922 13 251 11.3 12.9 0.00 0.05 0.05 41 1015.0
20260506215418 13 281 6.4 12.9 0.00 0.05 0.05 42 1015.1
20260506214914 13 222 9.7 14.5 0.00 0.05 0.05 41 1015.0
20260506214411 13 321 3.2 11.3 0.00 0.05 0.05 43 1015.0
20260506213909 13 270 8.0 12.9 0.00 0.05 0.05 41 1015.1
20260506213406 13 274 3.2 8.0 0.00 0.05 0.05 46 1015.1
20260506212903 12 294 1.6 4.8 0.00 0.05 0.05 39 1015.0
20260506212359 13 269 4.8 8.0 0.00 0.05 0.05 42 1015.1
20260506211854 13 328 6.4 9.7 0.00 0.05 0.05 44 1015.1
20260506211350 13 248 6.4 9.7 0.00 0.05 0.05 41 1015.2
20260506210848 13 268 0.0 1.6 0.00 0.05 0.05 42 1015.1
20260506210344 12 338 3.2 4.8 0.00 0.05 0.05 44 1015.0
20260506205842 12 298 1.6 4.8 0.00 0.05 0.05 42 1015.3
20260506205337 13 284 3.2 4.8 0.00 0.05 0.05 45 1015.2
20260506204834 13 240 9.7 11.3 0.00 0.05 0.05 39 1015.2
20260506204332 13 285 4.8 11.3 0.00 0.05 0.05 42 1015.3
20260506203829 13 289 1.6 4.8 0.00 0.05 0.05 44 1015.2
20260506203326 12 309 1.6 8.0 0.00 0.05 0.05 40 1015.2
20260506202823 13 224 11.3 17.7 0.00 0.05 0.05 43 1015.2
20260506202320 13 317 8.0 11.3 0.00 0.05 0.05 42 1015.2
20260506201816 13 274 11.3 12.9 0.00 0.05 0.05 41 1015.1
20260506201314 13 268 9.7 11.3 0.00 0.05 0.05 42 1015.2
20260506200811 13 259 4.8 8.0 0.00 0.05 0.05 41 1015.3
20260506200307 12 283 3.2 8.0 0.00 0.05 0.05 43 1015.3
20260506195803 13 272 1.6 8.0 0.00 0.05 0.05 43 1015.2
20260506195300 12 263 4.8 11.3 0.00 0.05 0.05 42 1015.3
20260506194757 13 269 9.7 11.3 0.00 0.05 0.05 42 1015.4
20260506194253 12 5 4.8 9.7 0.00 0.05 0.05 41 1015.4
20260506193752 12 281 1.6 14.5 0.00 0.05 0.05 43 1015.5
20260506193248 12 289 6.4 16.1 0.00 0.05 0.05 42 1015.5
20260506192744 12 276 4.8 12.9 0.00 0.05 0.05 42 1015.6
20260506192241 12 303 0.0 8.0 0.00 0.05 0.05 44 1015.4
20260506191738 12 237 3.2 4.8 0.00 0.05 0.05 43 1015.7
20260506191234 12 257 6.4 9.7 0.00 0.05 0.05 43 1015.5
20260506190732 12 334 4.8 9.7 0.00 0.05 0.05 43 1015.6
20260506190228 12 262 0.0 3.2 0.00 0.05 0.05 44 1015.5
20260506185725 12 354 4.8 12.9 0.00 0.05 0.05 46 1015.5
20260506185221 12 251 6.4 9.7 0.00 0.05 0.05 44 1015.4
20260506184719 12 263 3.2 4.8 0.00 0.05 0.05 46 1015.6
20260506184216 12 323 4.8 4.8 0.00 0.05 0.05 48 1015.6
20260506183713 11 295 1.6 4.8 0.00 0.05 0.05 44 1015.6
20260506183208 12 300 1.6 3.2 0.00 0.05 0.05 46 1015.6
20260506182706 12 331 3.2 8.0 0.00 0.05 0.05 43 1015.8
20260506182203 12 277 6.4 8.0 0.00 0.05 0.05 44 1015.6
20260506181701 12 286 1.6 8.0 0.00 0.05 0.05 44 1015.6
20260506181158 12 319 1.6 3.2 0.00 0.05 0.05 42 1015.7
20260506180655 12 286 4.8 11.3 0.00 0.05 0.05 44 1015.8
20260506180151 12 291 3.2 4.8 0.00 0.05 0.05 47 1015.6
20260506175647 12 337 3.2 3.2 0.00 0.05 0.05 40 1015.6
20260506175144 12 255 8.0 9.7 0.00 0.05 0.05 42 1015.5
20260506174637 12 300 3.2 9.7 0.00 0.05 0.05 44 1015.6
20260506174134 12 282 4.8 4.8 0.00 0.05 0.05 43 1015.3
20260506173631 12 319 3.2 14.5 0.00 0.05 0.05 42 1015.4
20260506173128 12 325 6.4 9.7 0.00 0.05 0.05 43 1015.5
20260506172625 12 338 3.2 9.7 0.00 0.05 0.05 42 1015.7
20260506172121 11 322 1.6 3.2 0.00 0.05 0.05 42 1015.3
20260506171619 11 301 1.6 11.3 0.00 0.05 0.05 41 1015.2
20260506171117 12 12 3.2 8.0 0.00 0.05 0.05 46 1015.5
20260506170615 12 330 4.8 8.0 0.00 0.05 0.05 46 1015.4
20260506170111 12 341 4.8 12.9 0.00 0.05 0.05 44 1015.4
20260506165609 11 32 3.2 8.0 0.00 0.05 0.05 43 1015.4
20260506165106 12 32 6.4 8.0 0.00 0.05 0.05 44 1015.5
20260506164603 11 299 1.6 4.8 0.00 0.05 0.05 41 1015.6
20260506164100 12 203 3.2 9.7 0.00 0.05 0.05 47 1015.5
20260506163555 12 281 1.6 8.0 0.00 0.05 0.05 43 1015.5
20260506163052 11 287 1.6 4.8 0.00 0.05 0.05 48 1015.7
20260506162548 12 281 8.0 11.3 0.00 0.05 0.05 46 1015.7
20260506162045 12 296 1.6 3.2 0.00 0.05 0.05 44 1015.6
20260506161543 12 347 9.7 12.9 0.00 0.05 0.05 41 1015.6
20260506161039 11 301 1.6 3.2 0.00 0.05 0.05 42 1015.5
20260506160537 12 265 4.8 9.7 0.00 0.05 0.05 39 1015.5
20260506160034 12 313 4.8 8.0 0.00 0.05 0.05 44 1015.8
20260506155532 12 31 6.4 11.3 0.00 0.05 0.05 41 1015.6
20260506153703 11 4 4.8 8.0 0.00 0.05 0.05 44 1015.8
20260506153201 11 61 1.6 8.0 0.00 0.05 0.05 49 1015.8
20260506152658 11 13 6.4 11.3 0.00 0.05 0.05 45 1015.6
20260506152155 12 261 1.6 8.0 0.00 0.05 0.05 45 1015.6
20260506151654 11 288 4.8 8.0 0.00 0.05 0.05 50 1015.6
20260506151150 11 237 8.0 9.7 0.00 0.05 0.05 47 1015.5
20260506150647 11 239 6.4 9.7 0.00 0.05 0.05 44 1015.5
20260506150144 11 9 3.2 4.8 0.00 0.05 0.05 53 1015.3
20260506145641 10 15 4.8 9.7 0.00 0.05 0.05 47 1015.4
20260506145137 11 34 6.4 8.0 0.00 0.05 0.05 48 1015.3
20260506144635 10 38 4.8 11.3 0.00 0.05 0.05 47 1015.4
20260506144131 11 65 3.2 11.3 0.00 0.05 0.05 45 1015.3
20260506143629 11 44 3.2 4.8 0.00 0.05 0.05 50 1015.2
20260506143127 11 256 4.8 4.8 0.00 0.05 0.05 52 1015.0
20260506142625 11 307 4.8 8.0 0.00 0.05 0.05 55 1014.9
20260506142123 10 278 6.4 9.7 0.00 0.05 0.05 51 1015.1
20260506141620 10 18 1.6 4.8 0.00 0.05 0.05 50 1015.0
20260506141119 10 356 1.6 8.0 0.00 0.05 0.05 50 1014.8
20260506140616 10 299 1.6 1.6 0.00 0.05 0.05 50 1014.8
20260506140113 9 277 3.2 3.2 0.00 0.05 0.05 55 1014.8
20260506135610 10 11 4.8 9.7 0.00 0.05 0.05 52 1014.8
20260506135106 10 23 1.6 4.8 0.00 0.05 0.05 52 1014.8
20260506134602 8 288 1.6 3.2 0.00 0.05 0.05 52 1014.9
20260506134058 9 323 4.8 11.3 0.00 0.05 0.05 53 1015.0
20260506133556 9 308 4.8 8.0 0.00 0.05 0.05 55 1014.8
20260506133053 8 77 4.8 9.7 0.00 0.05 0.05 54 1014.8
20260506132550 9 67 4.8 8.0 0.00 0.05 0.05 60 1014.9
20260506132047 8 30 3.2 4.8 0.00 0.05 0.05 59 1014.7
20260506131544 8 6 3.2 8.0 0.00 0.05 0.05 56 1014.7
20260506131040 8 78 1.6 9.7 0.00 0.05 0.05 60 1014.5
20260506130538 8 24 4.8 8.0 0.00 0.05 0.05 62 1014.5
20260506130035 8 359 4.8 8.0 0.00 0.05 0.05 66 1014.2
20260506125533 8 333 1.6 8.0 0.00 0.05 0.05 65 1014.3
20260506125031 8 23 3.2 9.7 0.00 0.05 0.05 66 1014.5
20260506124528 8 2 6.4 9.7 0.00 0.05 0.05 69 1014.1
20260506124026 7 298 3.2 4.8 0.00 0.05 0.05 73 1014.2
20260506123524 7 291 1.6 8.0 0.00 0.05 0.05 75 1013.6
20260506123021 7 313 3.2 3.2 0.00 0.05 0.05 76 1014.2
20260506122518 7 302 1.6 3.2 0.00 0.05 0.05 75 1014.3
20260506122016 7 10 4.8 8.0 0.00 0.05 0.05 74 1014.2
20260506121513 7 356 6.4 11.3 0.00 0.05 0.05 80 1014.1
20260506121009 7 9 1.6 9.7 0.00 0.05 0.05 88 1014.1
20260506120508 6 335 3.2 4.8 0.00 0.05 0.05 93 1013.9
20260506120005 7 290 0.0 3.2 0.00 0.05 0.05 94 1013.9
20260506115502 6 293 1.6 4.8 0.00 0.05 0.05 95 1013.5
20260506115001 6 307 1.6 3.2 0.00 0.05 0.05 96 1013.5
20260506114457 7 278 1.6 1.6 0.00 0.05 0.05 96 1013.1
20260506113956 7 273 0.0 1.6 0.00 0.05 0.05 96 1013.4
20260506113453 6 261 0.0 0.0 0.00 0.05 0.05 96 1013.3
20260506112950 6 261 1.6 1.6 0.00 0.05 0.05 96 1013.1
20260506112447 6 268 1.6 1.6 0.00 0.05 0.05 96 1013.1
20260506111944 6 271 0.0 0.0 0.00 0.05 0.05 96 1013.0
20260506111443 6 289 0.0 1.6 0.00 0.05 0.05 96 1012.9
20260506110939 6 274 0.0 0.0 0.00 0.05 0.05 96 1012.8
20260506110437 6 269 0.0 1.6 0.00 0.05 0.05 96 1012.8
20260506105933 6 270 0.0 0.0 0.00 0.05 0.05 96 1012.7
20260506105430 6 268 0.0 0.0 0.00 0.05 0.05 96 1012.4
20260506104927 6 270 0.0 0.0 0.00 0.05 0.05 96 1012.5
20260506104425 6 301 1.6 1.6 0.00 0.05 0.05 96 1012.5
20260506103923 6 282 1.6 1.6 0.00 0.05 0.05 96 1012.6
20260506103420 6 271 0.0 1.6 0.00 0.05 0.05 96 1012.5
20260506102917 6 271 0.0 0.0 0.00 0.05 0.05 96 1012.2
20260506102415 6 275 0.0 0.0 0.00 0.05 0.05 96 1012.2
20260506101912 6 270 1.6 3.2 0.00 0.05 0.05 96 1012.2
20260506101408 6 265 3.2 3.2 0.00 0.05 0.05 96 1012.2
20260506100906 6 286 0.0 1.6 0.00 0.05 0.05 96 1012.0
20260506100404 6 280 0.0 0.0 0.00 0.05 0.05 95 1011.8
20260506095902 6 271 0.0 0.0 0.00 0.05 0.05 95 1011.9
20260506095400 6 276 0.0 1.6 0.00 0.05 0.05 95 1011.8
20260506094856 6 286 1.6 1.6 0.00 0.05 0.05 95 1011.8
20260506094355 6 281 1.6 1.6 0.00 0.05 0.05 95 1012.1
20260506093852 6 268 0.0 1.6 0.00 0.05 0.05 95 1012.2
20260506093350 6 282 1.6 1.6 0.00 0.05 0.05 95 1012.0
20260506092847 6 278 1.6 1.6 0.00 0.05 0.05 95 1012.1
20260506092345 6 267 1.6 3.2 0.00 0.05 0.05 95 1012.0
20260506091841 6 257 0.0 1.6 0.00 0.05 0.05 95 1011.9
20260506091339 6 267 0.0 1.6 0.00 0.05 0.05 95 1011.9
20260506090836 6 284 1.6 1.6 0.00 0.05 0.05 95 1012.1
20260506090334 6 271 0.0 1.6 0.00 0.05 0.05 95 1011.9
20260506085830 6 261 1.6 3.2 0.00 0.05 0.05 95 1011.9
20260506085326 6 263 1.6 1.6 0.00 0.05 0.05 95 1011.7
20260506084823 6 236 1.6 1.6 0.00 0.05 0.05 95 1011.5
20260506084320 6 276 1.6 3.2 0.00 0.05 0.05 95 1011.7
20260506083817 6 303 0.0 0.0 0.00 0.05 0.05 95 1011.7
20260506083314 6 264 0.0 0.0 0.00 0.05 0.05 95 1011.7
20260506082812 6 261 0.0 0.0 0.00 0.05 0.05 95 1011.7
20260506082308 6 275 1.6 1.6 0.00 0.05 0.05 95 1011.6
20260506081805 6 269 0.0 0.0 0.00 0.05 0.05 95 1011.8
20260506081302 6 257 0.0 0.0 0.00 0.05 0.05 95 1011.8
20260506080800 6 269 0.0 0.0 0.00 0.05 0.05 95 1011.7
20260506080256 6 269 1.6 1.6 0.00 0.05 0.05 95 1011.5
20260506073240 6 268 0.0 0.0 0.00 0.05 0.05 95 1011.1
20260506072737 6 269 6.4 8.0 0.00 0.05 0.05 95 1011.5
20260506072235 6 268 0.0 1.6 0.00 0.05 0.05 95 1011.4
20260506071732 6 292 1.6 1.6 0.00 0.05 0.05 95 1011.2
20260506071230 6 271 0.0 1.6 0.00 0.05 0.05 95 1011.3
20260506070727 6 248 1.6 1.6 0.00 0.05 0.05 95 1011.0
20260506070224 6 272 1.6 1.6 0.00 0.05 0.05 95 1011.0
20260506062200 6 258 0.0 1.6 0.00 0.03 0.03 95 1011.6
20260506061656 6 247 0.0 1.6 0.00 0.03 0.03 95 1012.0
20260506061154 6 267 0.0 1.6 0.00 0.03 0.03 95 1012.1
20260506060653 7 267 0.0 0.0 0.00 0.03 0.03 95 1012.2
20260506060149 6 281 1.6 1.6 0.00 0.03 0.03 95 1012.0
20260506051121 7 262 0.0 0.0 0.00 0.00 0.00 94 1011.9
20260506050619 7 266 0.0 1.6 0.00 0.00 0.00 94 1012.2
20260506050116 7 265 0.0 1.6 0.00 0.00 0.00 94 1012.0
20260506045109 7 279 0.0 1.6 0.00 0.00 0.00 94 1011.7
20260506044608 7 279 0.0 0.0 0.00 0.00 0.00 94 1011.8
20260506044104 7 271 0.0 1.6 0.00 0.00 0.00 93 1011.9
20260506043601 7 270 0.0 0.0 0.00 0.00 0.00 93 1011.8
20260506043059 7 269 0.0 0.0 0.00 0.00 0.00 93 1011.7
20260506042558 6 264 0.0 0.0 0.00 0.00 0.00 93 1011.5
20260506042056 6 263 0.0 0.0 0.00 0.00 0.00 93 1011.5
20260506041554 6 258 0.0 0.0 0.00 0.00 0.00 93 1011.7
20260506041051 7 267 0.0 0.0 0.00 0.00 0.00 93 1011.5
20260506040549 7 261 0.0 0.0 0.00 0.00 0.00 93 1011.7
20260506040044 7 267 0.0 0.0 0.00 1.32 1.32 93 1011.6
20260506035542 7 258 0.0 0.0 0.00 1.32 1.32 92 1011.7
20260506035038 6 266 0.0 0.0 0.00 1.32 1.32 92 1011.5
20260506034536 6 268 0.0 1.6 0.00 1.32 1.32 92 1011.7
20260506034032 6 258 0.0 0.0 0.00 1.32 1.32 92 1011.5
20260506033530 6 257 0.0 0.0 0.00 1.32 1.32 92 1011.5
20260506033027 6 255 0.0 0.0 0.13 1.32 1.32 93 1011.6
20260506032524 6 263 0.0 0.0 0.13 1.32 1.32 93 1011.7
20260506032020 6 262 0.0 0.0 0.00 1.30 1.30 93 1011.7
20260506031518 7 258 0.0 0.0 0.00 1.30 1.30 93 1011.6
20260506031015 7 251 0.0 0.0 0.00 1.30 1.30 93 1011.7
20260506030513 7 271 0.0 0.0 0.00 1.30 1.30 93 1011.7
20260506030010 7 267 0.0 0.0 0.00 1.30 1.30 92 1011.6
20260506025507 6 272 0.0 0.0 0.00 1.30 1.30 92 1011.6
20260506025003 6 273 0.0 0.0 0.00 1.30 1.30 92 1011.6
20260506024500 6 269 0.0 0.0 0.00 1.30 1.30 93 1011.5
20260506023956 7 268 0.0 0.0 0.00 1.30 1.30 93 1011.7
20260506023453 7 282 0.0 1.6 0.00 1.30 1.30 93 1011.4
20260506022949 7 279 0.0 0.0 0.00 1.30 1.30 93 1011.4
20260506022447 7 275 0.0 0.0 0.00 1.30 1.30 93 1011.4
20260506021945 7 284 0.0 0.0 0.00 1.30 1.30 92 1011.5
20260506021442 7 285 0.0 0.0 0.00 1.30 1.30 92 1011.6
20260506020939 7 263 0.0 0.0 0.00 1.30 1.30 92 1011.5
20260506020437 6 262 0.0 0.0 0.00 1.30 1.30 92 1011.3
20260506015934 6 261 0.0 0.0 0.00 1.30 1.30 92 1011.6
20260506015431 7 261 0.0 0.0 0.00 1.30 1.30 91 1011.6
20260506014928 6 258 0.0 0.0 0.00 1.30 1.30 91 1011.5
20260506014425 6 261 0.0 0.0 0.00 1.30 1.30 91 1011.5
20260506013921 6 263 0.0 0.0 0.00 1.30 1.30 91 1011.5
20260506013420 7 257 0.0 1.6 0.00 1.30 1.30 91 1011.5
20260506012916 6 246 1.6 1.6 0.00 1.30 1.30 90 1011.5
20260506012412 6 236 1.6 1.6 0.00 1.30 1.30 90 1011.1
20260506011909 6 276 0.0 1.6 0.00 1.30 1.30 90 1011.1
20260506011406 6 288 1.6 3.2 0.00 1.30 1.30 91 1011.0
20260506010903 6 280 0.0 3.2 0.00 1.30 1.30 92 1011.0
20260506010402 6 352 6.4 8.0 0.00 1.30 1.30 93 1010.9
20260506005858 7 339 6.4 8.0 0.00 1.30 1.30 94 1010.9
20260506005355 7 319 4.8 9.7 0.00 1.30 1.30 95 1010.9
20260506004851 7 41 3.2 8.0 0.18 1.30 1.30 95 1011.0
20260506004349 8 28 4.8 9.7 0.18 1.30 1.30 95 1011.0
20260506003845 8 25 3.2 3.2 0.13 1.27 1.27 95 1011.1
20260506003341 8 243 1.6 3.2 0.13 1.27 1.27 95 1011.1
20260506002838 8 300 1.6 1.6 0.00 1.24 1.24 95 1011.0
20260506002334 8 276 0.0 1.6 0.00 1.24 1.24 95 1010.8
20260506001829 8 267 0.0 0.0 0.18 1.24 1.24 95 1011.0